Time,TemperatureF,DewpointF,PressureIn,WindDirection,WindDirectionDegrees,WindSpeedMPH,WindSpeedGustMPH,Humidity,HourlyPrecipIn,Conditions,Clouds,dailyrainin,SoftwareType,DateUTC
2013-06-05 00:00:00,44.0,43.0,30.15,NNE,22,0.0,0.0,97,-99.99,,,-99.99,,2013-06-05 04:00:00,
2013-06-05 00:23:00,44.0,43.0,30.15,NNE,22,0.0,0.0,97,-99.99,,,-99.99,,2013-06-05 04:23:00,
2013-06-05 00:33:00,44.0,43.0,30.15,NNE,22,0.0,0.0,97,-99.99,,,-99.99,,2013-06-05 04:33:00,
2013-06-05 00:42:00,44.0,43.0,30.15,NNE,22,0.0,0.0,97,-99.99,,,-99.99,,2013-06-05 04:42:00,
2013-06-05 00:53:00,44.0,43.0,30.15,NNE,22,0.0,0.0,97,-99.99,,,-99.99,,2013-06-05 04:53:00,
2013-06-05 01:00:00,42.0,42.0,30.15,NNW,340,0.0,0.0,99,-99.99,,,-99.99,,2013-06-05 05:00:00,
2013-06-05 01:23:00,42.0,42.0,30.15,NNW,340,0.0,0.0,99,-99.99,,,-99.99,,2013-06-05 05:23:00,
2013-06-05 01:32:00,42.0,42.0,30.15,NNW,340,0.0,0.0,99,-99.99,,,-99.99,,2013-06-05 05:32:00,
2013-06-05 01:42:00,42.0,42.0,30.15,NNW,340,0.0,0.0,99,-99.99,,,-99.99,,2013-06-05 05:42:00,
2013-06-05 01:53:00,42.0,42.0,30.15,NNW,340,0.0,0.0,99,-99.99,,,-99.99,,2013-06-05 05:53:00,
2013-06-05 02:00:00,41.0,41.0,30.18,ESE,110,0.0,3.0,99,-99.99,,,-99.99,,2013-06-05 06:00:00,
2013-06-05 02:22:00,41.0,41.0,30.18,ESE,110,0.0,3.0,99,-99.99,,,-99.99,,2013-06-05 06:22:00,
2013-06-05 02:32:00,41.0,41.0,30.18,ESE,110,0.0,3.0,99,-99.99,,,-99.99,,2013-06-05 06:32:00,
2013-06-05 02:42:00,41.0,41.0,30.18,ESE,110,0.0,3.0,99,-99.99,,,-99.99,,2013-06-05 06:42:00,
2013-06-05 02:52:00,41.0,41.0,30.18,ESE,110,0.0,3.0,99,-99.99,,,-99.99,,2013-06-05 06:52:00,
2013-06-05 03:00:00,40.0,40.0,30.18,SSW,203,0.0,-999.0,100,-99.99,,,-99.99,,2013-06-05 07:00:00,
2013-06-05 03:22:00,40.0,40.0,30.18,SSW,203,0.0,-999.0,100,-99.99,,,-99.99,,2013-06-05 07:22:00,
2013-06-05 03:32:00,40.0,40.0,30.18,SSW,203,0.0,-999.0,100,-99.99,,,-99.99,,2013-06-05 07:32:00,
2013-06-05 03:42:00,40.0,40.0,30.18,SSW,203,0.0,-999.0,100,-99.99,,,-99.99,,2013-06-05 07:42:00,
2013-06-05 03:52:00,40.0,40.0,30.18,SSW,203,0.0,-999.0,100,-99.99,,,-99.99,,2013-06-05 07:52:00,
2013-06-05 04:00:00,38.0,38.0,30.18,NW,317,0.0,3.0,99,-99.99,,,-99.99,,2013-06-05 08:00:00,
2013-06-05 04:22:00,38.0,38.0,30.18,NW,317,0.0,3.0,99,-99.99,,,-99.99,,2013-06-05 08:22:00,
2013-06-05 04:32:00,38.0,38.0,30.18,NW,317,0.0,3.0,99,-99.99,,,-99.99,,2013-06-05 08:32:00,
2013-06-05 04:42:00,38.0,38.0,30.18,NW,317,0.0,3.0,99,-99.99,,,-99.99,,2013-06-05 08:42:00,
2013-06-05 04:52:00,38.0,38.0,30.18,NW,317,0.0,3.0,99,-99.99,,,-99.99,,2013-06-05 08:52:00,
2013-06-05 05:00:00,38.0,37.0,30.18,North,0,0.0,0.0,100,-99.99,,,-99.99,,2013-06-05 09:00:00,
2013-06-05 05:22:00,38.0,37.0,30.18,North,0,0.0,0.0,100,-99.99,,,-99.99,,2013-06-05 09:22:00,
2013-06-05 05:33:00,38.0,37.0,30.18,North,0,0.0,0.0,100,-99.99,,,-99.99,,2013-06-05 09:33:00,
2013-06-05 05:43:00,38.0,37.0,30.18,North,0,0.0,0.0,100,-99.99,,,-99.99,,2013-06-05 09:43:00,
2013-06-05 05:53:00,38.0,37.0,30.18,North,0,0.0,0.0,100,-99.99,,,-99.99,,2013-06-05 09:53:00,
2013-06-05 06:00:00,37.0,37.0,30.21,ENE,61,0.0,3.0,100,-99.99,,,-99.99,,2013-06-05 10:00:00,
2013-06-05 06:23:00,37.0,37.0,30.21,ENE,61,0.0,3.0,100,-99.99,,,-99.99,,2013-06-05 10:23:00,
2013-06-05 06:33:00,37.0,37.0,30.21,ENE,61,0.0,3.0,100,-99.99,,,-99.99,,2013-06-05 10:33:00,
2013-06-05 06:43:00,37.0,37.0,30.21,ENE,61,0.0,3.0,100,-99.99,,,-99.99,,2013-06-05 10:43:00,
2013-06-05 06:53:00,37.0,37.0,30.21,ENE,61,0.0,3.0,100,-99.99,,,-99.99,,2013-06-05 10:53:00,
2013-06-05 07:00:00,45.0,41.0,30.24,ENE,67,0.0,0.0,86,-99.99,,,-99.99,,2013-06-05 11:00:00,
2013-06-05 07:22:00,45.0,41.0,30.24,ENE,67,0.0,0.0,86,-99.99,,,-99.99,,2013-06-05 11:22:00,
2013-06-05 07:33:00,45.0,41.0,30.24,ENE,67,0.0,0.0,86,-99.99,,,-99.99,,2013-06-05 11:33:00,
2013-06-05 07:42:00,45.0,41.0,30.24,ENE,67,0.0,0.0,86,-99.99,,,-99.99,,2013-06-05 11:42:00,
2013-06-05 07:52:00,45.0,41.0,30.24,ENE,67,0.0,0.0,86,-99.99,,,-99.99,,2013-06-05 11:52:00,
2013-06-05 08:00:00,55.0,44.0,30.24,ENE,63,0.0,0.0,66,-99.99,,,-99.99,,2013-06-05 12:00:00,
2013-06-05 08:22:00,55.0,44.0,30.24,ENE,63,0.0,0.0,66,-99.99,,,-99.99,,2013-06-05 12:22:00,
2013-06-05 08:32:00,55.0,44.0,30.24,ENE,63,0.0,0.0,66,-99.99,,,-99.99,,2013-06-05 12:32:00,
2013-06-05 08:44:00,55.0,44.0,30.24,ENE,63,0.0,0.0,66,-99.99,,,-99.99,,2013-06-05 12:44:00,
2013-06-05 08:52:00,55.0,44.0,30.24,ENE,63,0.0,0.0,66,-99.99,,,-99.99,,2013-06-05 12:52:00,
2013-06-05 09:00:00,60.0,45.0,30.24,ENE,70,5.0,9.0,57,-99.99,,,-99.99,,2013-06-05 13:00:00,
2013-06-05 09:22:00,60.0,45.0,30.24,ENE,70,5.0,9.0,57,-99.99,,,-99.99,,2013-06-05 13:22:00,
2013-06-05 09:33:00,60.0,45.0,30.24,ENE,70,5.0,9.0,57,-99.99,,,-99.99,,2013-06-05 13:33:00,
2013-06-05 09:42:00,60.0,45.0,30.24,ENE,70,5.0,9.0,57,-99.99,,,-99.99,,2013-06-05 13:42:00,
2013-06-05 09:53:00,60.0,45.0,30.24,ENE,70,5.0,9.0,57,-99.99,,,-99.99,,2013-06-05 13:53:00,
2013-06-05 10:00:00,64.0,45.0,30.21,North,10,2.0,10.0,49,-99.99,,,-99.99,,2013-06-05 14:00:00,
2013-06-05 10:22:00,64.0,45.0,30.21,North,10,2.0,10.0,49,-99.99,,,-99.99,,2013-06-05 14:22:00,
2013-06-05 10:32:00,64.0,45.0,30.21,North,10,2.0,10.0,49,-99.99,,,-99.99,,2013-06-05 14:32:00,
2013-06-05 10:42:00,64.0,45.0,30.21,North,10,2.0,10.0,49,-99.99,,,-99.99,,2013-06-05 14:42:00,
2013-06-05 10:52:00,64.0,45.0,30.21,North,10,2.0,10.0,49,-99.99,,,-99.99,,2013-06-05 14:52:00,
2013-06-05 11:00:00,68.0,48.0,30.18,SSW,195,2.0,9.0,49,-99.99,,,-99.99,,2013-06-05 15:00:00,
2013-06-05 11:23:00,68.0,48.0,30.18,SSW,195,2.0,9.0,49,-99.99,,,-99.99,,2013-06-05 15:23:00,
2013-06-05 11:33:00,68.0,48.0,30.18,SSW,195,2.0,9.0,49,-99.99,,,-99.99,,2013-06-05 15:33:00,
2013-06-05 11:43:00,68.0,48.0,30.18,SSW,195,2.0,9.0,49,-99.99,,,-99.99,,2013-06-05 15:43:00,
2013-06-05 11:53:00,68.0,48.0,30.18,SSW,195,2.0,9.0,49,-99.99,,,-99.99,,2013-06-05 15:53:00,
2013-06-05 12:00:00,70.0,49.0,30.18,West,266,2.0,8.0,48,-99.99,,,-99.99,,2013-06-05 16:00:00,
2013-06-05 12:32:00,70.0,49.0,30.18,West,266,2.0,8.0,48,-99.99,,,-99.99,,2013-06-05 16:32:00,
2013-06-05 12:42:00,70.0,49.0,30.18,West,266,2.0,8.0,48,-99.99,,,-99.99,,2013-06-05 16:42:00,
2013-06-05 12:54:00,70.0,49.0,30.18,West,266,2.0,8.0,48,-99.99,,,-99.99,,2013-06-05 16:54:00,
2013-06-05 13:22:00,70.0,41.0,30.15,WSW,245,0.0,8.0,35,-99.99,,,-99.99,,2013-06-05 17:22:00,
2013-06-05 13:33:00,70.0,41.0,30.15,WSW,245,0.0,8.0,35,-99.99,,,-99.99,,2013-06-05 17:33:00,
2013-06-05 14:00:00,72.0,45.0,30.15,NNE,24,0.0,8.0,38,-99.99,,,-99.99,,2013-06-05 18:00:00,
2013-06-05 14:23:00,72.0,45.0,30.15,NNE,24,0.0,8.0,38,-99.99,,,-99.99,,2013-06-05 18:23:00,
2013-06-05 14:32:00,72.0,45.0,30.15,NNE,24,0.0,8.0,38,-99.99,,,-99.99,,2013-06-05 18:32:00,
2013-06-05 14:42:00,72.0,45.0,30.15,NNE,24,0.0,8.0,38,-99.99,,,-99.99,,2013-06-05 18:42:00,
2013-06-05 14:52:00,72.0,45.0,30.15,NNE,24,0.0,8.0,38,-99.99,,,-99.99,,2013-06-05 18:52:00,
2013-06-05 15:00:00,73.0,44.0,30.09,SE,127,4.0,8.0,34,-99.99,,,-99.99,,2013-06-05 19:00:00,
2013-06-05 15:32:00,73.0,44.0,30.09,SE,127,4.0,8.0,34,-99.99,,,-99.99,,2013-06-05 19:32:00,
2013-06-05 15:42:00,73.0,44.0,30.09,SE,127,4.0,8.0,34,-99.99,,,-99.99,,2013-06-05 19:42:00,
2013-06-05 15:53:00,73.0,44.0,30.09,SE,127,4.0,8.0,34,-99.99,,,-99.99,,2013-06-05 19:53:00,
2013-06-05 16:00:00,73.0,48.0,30.09,WSW,237,3.0,11.0,40,-99.99,,,-99.99,,2013-06-05 20:00:00,
2013-06-05 16:23:00,73.0,48.0,30.09,WSW,237,3.0,11.0,40,-99.99,,,-99.99,,2013-06-05 20:23:00,
2013-06-05 16:32:00,73.0,48.0,30.09,WSW,237,3.0,11.0,40,-99.99,,,-99.99,,2013-06-05 20:32:00,
2013-06-05 16:42:00,73.0,48.0,30.09,WSW,237,3.0,11.0,40,-99.99,,,-99.99,,2013-06-05 20:42:00,
2013-06-05 16:52:00,73.0,48.0,30.09,WSW,237,3.0,11.0,40,-99.99,,,-99.99,,2013-06-05 20:52:00,
2013-06-05 17:00:00,74.0,50.0,30.09,South,176,0.0,11.0,42,-99.99,,,-99.99,,2013-06-05 21:00:00,
2013-06-05 17:33:00,74.0,50.0,30.09,South,176,0.0,11.0,42,-99.99,,,-99.99,,2013-06-05 21:33:00,
2013-06-05 17:43:00,74.0,50.0,30.09,South,176,0.0,11.0,42,-99.99,,,-99.99,,2013-06-05 21:43:00,
2013-06-05 17:53:00,74.0,50.0,30.09,South,176,0.0,11.0,42,-99.99,,,-99.99,,2013-06-05 21:53:00,
2013-06-05 18:00:00,73.0,47.0,30.09,SSW,194,4.0,9.0,39,-99.99,,,-99.99,,2013-06-05 22:00:00,
2013-06-05 18:22:00,73.0,47.0,30.09,SSW,194,4.0,9.0,39,-99.99,,,-99.99,,2013-06-05 22:22:00,
2013-06-05 18:33:00,73.0,47.0,30.09,SSW,194,4.0,9.0,39,-99.99,,,-99.99,,2013-06-05 22:33:00,
2013-06-05 18:43:00,73.0,47.0,30.09,SSW,194,4.0,9.0,39,-99.99,,,-99.99,,2013-06-05 22:43:00,
2013-06-05 18:53:00,73.0,47.0,30.09,SSW,194,4.0,9.0,39,-99.99,,,-99.99,,2013-06-05 22:53:00,
2013-06-05 19:00:00,71.0,48.0,30.09,ESE,113,2.0,9.0,44,-99.99,,,-99.99,,2013-06-05 23:00:00,
2013-06-05 19:22:00,71.0,48.0,30.09,ESE,113,2.0,9.0,44,-99.99,,,-99.99,,2013-06-05 23:22:00,
2013-06-05 19:32:00,71.0,48.0,30.09,ESE,113,2.0,9.0,44,-99.99,,,-99.99,,2013-06-05 23:32:00,
2013-06-05 19:42:00,71.0,48.0,30.09,ESE,113,2.0,9.0,44,-99.99,,,-99.99,,2013-06-05 23:42:00,
2013-06-05 19:53:00,71.0,48.0,30.09,ESE,113,2.0,9.0,44,-99.99,,,-99.99,,2013-06-05 23:53:00,
2013-06-05 20:32:00,62.0,51.0,30.12,NNW,345,0.0,9.0,67,-99.99,,,-99.99,,2013-06-06 00:32:00,
2013-06-05 21:32:00,57.0,50.0,30.12,WNW,296,0.0,2.0,77,-99.99,,,-99.99,,2013-06-06 01:32:00,
2013-06-05 22:00:00,56.0,49.0,30.15,NNW,331,0.0,3.0,78,-99.99,,,-99.99,,2013-06-06 02:00:00,
2013-06-05 22:22:00,56.0,49.0,30.15,NNW,331,0.0,3.0,78,-99.99,,,-99.99,,2013-06-06 02:22:00,
2013-06-05 22:32:00,56.0,49.0,30.15,NNW,331,0.0,3.0,78,-99.99,,,-99.99,,2013-06-06 02:32:00,
2013-06-05 22:42:00,56.0,49.0,30.15,NNW,331,0.0,3.0,78,-99.99,,,-99.99,,2013-06-06 02:42:00,
2013-06-05 22:52:00,56.0,49.0,30.15,NNW,331,0.0,3.0,78,-99.99,,,-99.99,,2013-06-06 02:52:00,
2013-06-05 23:00:00,54.0,48.0,30.15,NE,51,0.0,5.0,80,-99.99,,,-99.99,,2013-06-06 03:00:00,
2013-06-05 23:22:00,54.0,48.0,30.15,NE,51,0.0,5.0,80,-99.99,,,-99.99,,2013-06-06 03:22:00,
2013-06-05 23:33:00,54.0,48.0,30.15,NE,51,0.0,5.0,80,-99.99,,,-99.99,,2013-06-06 03:33:00,